Home > Weather > Carson City > Past weeks

Flag for USA Past Weather in Carson City, Nevada, USA — Yesterday and Last 2 Weeks

Now
77 °F

Passing clouds.


Feels Like: 77 °F
Forecast: 48 / 85 °F
Wind: No wind

Location: Reno Tahoe International Airport

Current Time: Aug 24, 2016 at 11:23:00 AM

Latest Report: Aug 24, 2016 at 10:55 AM


Visibility: 10 mi

Pressure: 30.05 "Hg (25.52 "Hg at 1425m altitude)

Humidity: 16%

Dew Point: 28 °F

Location of Carson CityLocation

Past Weather in Carson City — Graph

°F

Carson City Temperature Yesterday

Maximum temperature yesterday: 91 °F (at 1:55 PM)
Minimum temperature yesterday: 56 °F (at 4:55 AM)
Average temperature yesterday: 74 °F

High & Low Weather Summary for the Past Weeks

 TemperatureHumidityPressure
High98 °F (Aug 13, 4:55 PM)65% (Aug 23, 4:55 AM)30.10 "Hg (Aug 23, 4:55 AM)
Low53 °F (Aug 24, 6:55 AM)7% (Aug 13, 3:55 PM)29.74 "Hg (Aug 9, 4:55 PM)
Average78 °F26%29.90 "Hg
* Reported Aug 9 9:55 AM — Aug 24 9:55 AM, Carson City, Weather by CustomWeather, © 2016

Note: Actual official high and low records may vary slightly from our data, if they occured in-between our weather recording intervals... More about our weather records

Advertising

Carson City Weather History for the Previous 24 Hours

Scroll right to see more
 ConditionsComfort  
Time TempWeatherWind HumidityBarometerVisibility
9:55 AM
Wed, Aug 24
71 °FSunny.3 mph20%30.07 "Hg10 mi
8:55 AM64 °FSunny.No wind28%30.09 "Hg10 mi
7:55 AM59 °FSunny.No wind33%30.10 "Hg10 mi
6:55 AM53 °FClear.3 mph47%30.10 "Hg10 mi
5:55 AM57 °FClear.5 mph36%30.07 "Hg10 mi
4:55 AM57 °FClear.No wind39%30.06 "Hg10 mi
3:55 AM56 °FClear.3 mph39%30.06 "Hg10 mi
2:55 AM59 °FClear.3 mph35%30.06 "Hg10 mi
1:55 AM61 °FClear.3 mph32%30.05 "Hg10 mi
12:55 AM65 °FClear.6 mph27%30.03 "Hg10 mi
11:55 PM
Tue, Aug 23
68 °FClear.7 mph23%30.03 "Hg10 mi
10:55 PM73 °FClear.7 mph19%30.03 "Hg10 mi
9:55 PM74 °FClear.3 mph19%30.04 "Hg10 mi
8:55 PM78 °FClear.8 mph16%30.03 "Hg10 mi
7:55 PM81 °FSunny.8 mph16%30.01 "Hg10 mi
6:55 PM84 °FSunny.12 mph15%29.98 "Hg10 mi
5:55 PM87 °FPassing clouds.13 mph14%29.96 "Hg10 mi
4:55 PM89 °FPassing clouds.14 mph14%29.96 "Hg10 mi
3:55 PM90 °FScattered clouds.17 mph13%29.94 "Hg10 mi
2:55 PM91 °FScattered clouds.14 mph13%29.94 "Hg10 mi
1:55 PM91 °FScattered clouds.17 mph13%29.95 "Hg10 mi
12:55 PM90 °FScattered clouds.13 mph14%29.95 "Hg10 mi
11:55 AM87 °FPassing clouds.8 mph18%29.96 "Hg10 mi
Weather by CustomWeather, © 2016

See weather overviewHow to use our weather pages